小惑星2009 DL26

2009 DL26

English version
Home page
Updated on August 29, 2010

---------------------------------------------------------------------

・ プロフィール

・ 軌道要素

The following orbital elements are taken from MPEC 2010-C18:

Epoch 2009 Feb. 18.0 TT = JDT 2454880.5                 MPC
M 282.15757              (2000.0)            P               Q
n   0.03943015     Peri.  277.71327     +0.58685522     +0.80941647
a   8.5490346      Node    28.25394     -0.72418597     +0.53636802
e   0.5581402      Incl.    2.55675     -0.36215415     +0.23906970
P  25.0            H   11.1           G   0.15
From 12 observations 2009 Feb. 21-Mar. 2.  E-assumed.

・ 星図

・ 光度変化

        H = 11.1  G = 0.15

---------------------------------------------------------------------

軌道要素はMPCのEphemerides and Orbital Elementsに掲載されたものです。
星図はステラナビゲータ Ver.8 (アストロアーツ) で作成したものです。
光度グラフはComet for Windowsで作成したものです。

---------------------------------------------------------------------

Copyright(C) Seiichi Yoshida (comet@aerith.net). All rights reserved.